User: anonymous   Login
Location: Homewood
(41.1836°S, 175.9581°E)
Time: 10:13:30
(UTC+00:00)
Language:

Cosmos 2251 Rocket - Orbit

View from above orbital plane
View from above orbital plane
View from above satellite
View from above satellite

Ground track
Ground track

The orbit data is extracted from the following two-line orbital elements,

1 22676U 93036B   24169.75385437  .00000398  00000-0  14969-3 0  9990
2 22676  74.0401 183.1019 0019836 302.1419  57.7808 14.34620074621668
Epoch (UTC): 17 June 2024 18:05:33
Eccentricity: 0.0019836
inclination: 74.0401°
perigee height: 762 km
apogee height: 790 km
right ascension of ascending node: 183.1019°
argument of perigee: 302.1419°
revolutions per day: 14.34620074
mean anomaly at epoch: 57.7808°
orbit number at epoch: 62166

The dashed part of the orbit path shows where the satellite is in the earth's shadow,  

DLR